Weather in Khordogoy

Russia / Sakha (Yakutia) Republic     62°36′20″N   115°40′45″E
temp.,
°C
wind,
m/s
gust,
m/s
humid.,
%
clouds,
%
prec.,
mm/h
press.,
hPa
HPBL,
m
29 july, thu
thu2900:00+21e27700 0.1 1009188
03:00+19ene256757 0.1 1010163
06:00+16ene24712 0.0 1011104
09:00+22e35472 0.0 1011583
12:00+26ese45305 0.0 10111752
15:00+28e45235 0.0 10102039
18:00+27e342427 0.0 10102092
21:00+22ene27475 0.0 1011138
30 july, fri
fri3000:00+15e22554 0.0 101230
03:00+13e11650 0.0 101311
06:00+13ne11635 0.0 101410
09:00+20ene24384 0.0 1014458
12:00+25ene45240 0.0 10131748
15:00+27e35204 0.0 10122090
18:00+27e34215 0.0 10122130
21:00+21e22420 0.0 101337
31 july, sat
sat3100:00+15ese11530 0.0 101412
03:00+13e11611 0.0 101511
06:00+13ene11625 0.0 101612
09:00+21e23395 0.0 1017396
12:00+26ese23265 0.0 10161671
15:00+28ese23209 0.0 10152171
18:00+28ese332183 0.0 10152180
21:00+21se224668 0.0 101631
1 august, sun
sun100:00+16sse11565 0.0 101711
03:00+14ese11615 0.0 101810
06:00+14ese11644 0.0 101810
09:00+22se12420 0.0 1018346
12:00+27se23280 0.0 10171889
15:00+29se23250 0.0 10152390
18:00+29ese34260 0.0 10142453
21:00+22e11470 0.0 101411
2 august, mon
mon200:00+18ne11570 0.0 101412
03:00+16nne2263100 0.0 101312
06:00+17n2262100 0.0 101349
09:00+23nne3744100 0.0 1012406
12:00+28ne5829100 0.0 10101441
15:00+31ne5724100 0.0 10072166
18:00+30ne5827100 0.0 10062456
21:00+25ne3841100 0.0 1005262